This is the latest recevied weather packets stored in our database for station/object WZ9ZZZ-1. If no packets are shown the sender has not sent any weather packets the latest 10 day(s).
| Time | Temp. | Humidity | Pressure | Rain* | Wind** | Luminosity | Snow |
|---|---|---|---|---|---|---|---|
| 1776887298 | 24.44° C | 83% | 1019.8 hPa | 0 mm | - | 46 W/m² | - |
| 1776886995 | 24.44° C | 82% | 1019.7 hPa | 0 mm | - | 65 W/m² | - |
| 1776886692 | 25° C | 82% | 1019.6 hPa | 0 mm | - | 79 W/m² | - |
| 1776886389 | 25° C | 82% | 1019.6 hPa | 0 mm | - | 122 W/m² | - |
| 1776886086 | 25° C | 82% | 1019.8 hPa | 0 mm | - | 108 W/m² | - |
| 1776885783 | 25.56° C | 81% | 1019.7 hPa | 0 mm | - | 132 W/m² | - |
| 1776885479 | 26.11° C | 80% | 1019.8 hPa | 0 mm | - | 121 W/m² | - |
| 1776885177 | 26.11° C | 80% | 1020 hPa | 0 mm | - | 140 W/m² | - |
| 1776884874 | 25.56° C | 82% | 1019.9 hPa | 0 mm | - | 296 W/m² | - |
| 1776884571 | 25.56° C | 82% | 1019.6 hPa | 0 mm | - | 195 W/m² | - |
| 1776884268 | 26.11° C | 81% | 1019.8 hPa | 0 mm | - | 163 W/m² | - |
| 1776883964 | 26.11° C | 82% | 1019.8 hPa | 0 mm | - | 237 W/m² | - |
| 1776883662 | 26.11° C | 82% | 1019.7 hPa | 0 mm | - | 750 W/m² | - |
| 1776883359 | 25.56° C | 82% | 1019.8 hPa | 0 mm | - | 667 W/m² | - |
| 1776883056 | 25° C | 81% | 1019.8 hPa | 0 mm | - | 203 W/m² | - |
| 1776882753 | 25.56° C | 82% | 1019.9 hPa | 0 mm | - | 244 W/m² | - |
| 1776882450 | 25° C | 83% | 1019.8 hPa | 0 mm | - | 256 W/m² | - |
| 1776882147 | 25° C | 83% | 1020 hPa | 0 mm | - | 254 W/m² | - |
| 1776881843 | 25.56° C | 82% | 1020 hPa | 0 mm | - | 212 W/m² | - |
| 1776881540 | 26.11° C | 79% | 1020.4 hPa | 0 mm | - | 219 W/m² | - |
| 1776881236 | 26.11° C | 79% | 1020.2 hPa | 0 mm | - | 224 W/m² | - |
* Rain latest hour (hover to see other rain measurements)
** Current wind speed in m/s (hover to see current wind gust speed)